owner,sensor,date,latitude,longitude,vertical_datum,sea_water_practical_salinity,qcFlag 
DISL,ioos:station:DISL:CATA:1,2019-10-01T00:30:00Z,30.3085,-88.1395,2.399,22.49,11111222 
DISL,ioos:station:DISL:CATA:1,2019-10-01T01:30:00Z,30.3085,-88.1395,2.448,22.59,11111222 
DISL,ioos:station:DISL:CATA:1,2019-10-01T02:30:00Z,30.3085,-88.1395,2.488,22.48,11111222 
DISL,ioos:station:DISL:CATA:1,2019-10-01T03:30:00Z,30.3085,-88.1395,2.509,22.63,11111222 
DISL,ioos:station:DISL:CATA:1,2019-10-01T04:30:00Z,30.3085,-88.1395,2.52,22.56,11111222 
DISL,ioos:station:DISL:CATA:1,2019-10-01T05:30:00Z,30.3085,-88.1395,2.508,22.59,11111222 
DISL,ioos:station:DISL:CATA:1,2019-10-01T06:30:00Z,30.3085,-88.1395,2.483,22.48,11111222 
DISL,ioos:station:DISL:CATA:1,2019-10-01T07:30:00Z,30.3085,-88.1395,2.467,22.4,11111222 
DISL,ioos:station:DISL:CATA:1,2019-10-01T08:30:00Z,30.3085,-88.1395,2.437,22.35,11111222 
DISL,ioos:station:DISL:CATA:1,2019-10-01T09:30:00Z,30.3085,-88.1395,2.386,22.4,11111222 
DISL,ioos:station:DISL:CATA:1,2019-10-01T10:30:00Z,30.3085,-88.1395,2.305,22.3,11111222 
DISL,ioos:station:DISL:CATA:1,2019-10-01T11:30:00Z,30.3085,-88.1395,2.226,22.42,11111222 
DISL,ioos:station:DISL:CATA:1,2019-10-01T12:30:00Z,30.3085,-88.1395,2.175,22.54,11111222 
DISL,ioos:station:DISL:CATA:1,2019-10-01T13:30:00Z,30.3085,-88.1395,2.152,22.51,11111222 
DISL,ioos:station:DISL:CATA:1,2019-10-01T14:30:00Z,30.3085,-88.1395,2.151,22.64,11111222 
DISL,ioos:station:DISL:CATA:1,2019-10-01T15:30:00Z,30.3085,-88.1395,2.153,22.58,11111222 
DISL,ioos:station:DISL:CATA:1,2019-10-01T16:30:00Z,30.3085,-88.1395,2.163,22.57,11111222 
DISL,ioos:station:DISL:CATA:1,2019-10-01T17:30:00Z,30.3085,-88.1395,2.175,22.53,11111222 
DISL,ioos:station:DISL:CATA:1,2019-10-01T18:30:00Z,30.3085,-88.1395,2.216,22.54,11111222 
DISL,ioos:station:DISL:CATA:1,2019-10-01T19:30:00Z,30.3085,-88.1395,2.258,22.48,11111222 
DISL,ioos:station:DISL:CATA:1,2019-10-01T20:30:00Z,30.3085,-88.1395,2.302,22.62,11111222 
DISL,ioos:station:DISL:CATA:1,2019-10-01T21:30:00Z,30.3085,-88.1395,2.338,22.59,11111222 
DISL,ioos:station:DISL:CATA:1,2019-10-01T22:30:00Z,30.3085,-88.1395,2.377,22.3,11111222 
DISL,ioos:station:DISL:CATA:1,2019-10-01T23:30:00Z,30.3085,-88.1395,2.405,22.06,11111222 
DISL,ioos:station:DISL:CATA:1,2019-10-02T00:30:00Z,30.3085,-88.1395,2.445,22.04,11111222 
DISL,ioos:station:DISL:CATA:1,2019-10-02T01:30:00Z,30.3085,-88.1395,2.498,22.04,11111222 
DISL,ioos:station:DISL:CATA:1,2019-10-02T02:30:00Z,30.3085,-88.1395,2.546,22.08,11111222 
DISL,ioos:station:DISL:CATA:1,2019-10-02T03:30:00Z,30.3085,-88.1395,2.603,22.2,11111222 
DISL,ioos:station:DISL:CATA:1,2019-10-02T05:00:00Z,30.3085,-88.1395,2.637,22.19,11111222 
DISL,ioos:station:DISL:CATA:1,2019-10-02T05:30:00Z,30.3085,-88.1395,2.637,22.16,11111222 
DISL,ioos:station:DISL:CATA:1,2019-10-02T06:30:00Z,30.3085,-88.1395,2.604,22.1,11111222 
DISL,ioos:station:DISL:CATA:1,2019-10-02T07:30:00Z,30.3085,-88.1395,2.572,22.06,11111222 
DISL,ioos:station:DISL:CATA:1,2019-10-02T08:30:00Z,30.3085,-88.1395,2.52,21.87,11111222 
DISL,ioos:station:DISL:CATA:1,2019-10-02T09:30:00Z,30.3085,-88.1395,2.47,22.15,11111222 
DISL,ioos:station:DISL:CATA:1,2019-10-02T10:30:00Z,30.3085,-88.1395,2.403,22.18,11111222 
DISL,ioos:station:DISL:CATA:1,2019-10-02T11:30:00Z,30.3085,-88.1395,2.316,22.15,11111222 
DISL,ioos:station:DISL:CATA:1,2019-10-02T12:30:00Z,30.3085,-88.1395,2.247,22.21,11111222 
DISL,ioos:station:DISL:CATA:1,2019-10-02T13:30:00Z,30.3085,-88.1395,2.181,22.2,11111222 
DISL,ioos:station:DISL:CATA:1,2019-10-02T14:30:00Z,30.3085,-88.1395,2.131,22.22,11111222 
DISL,ioos:station:DISL:CATA:1,2019-10-02T15:30:00Z,30.3085,-88.1395,2.109,22.19,11111222 
DISL,ioos:station:DISL:CATA:1,2019-10-02T16:30:00Z,30.3085,-88.1395,2.116,21.99,11111222 
DISL,ioos:station:DISL:CATA:1,2019-10-02T17:30:00Z,30.3085,-88.1395,2.13,21.85,11111222 
DISL,ioos:station:DISL:CATA:1,2019-10-02T18:30:00Z,30.3085,-88.1395,2.154,21.8,11111222 
DISL,ioos:station:DISL:CATA:1,2019-10-02T19:30:00Z,30.3085,-88.1395,2.184,21.53,11111222 
DISL,ioos:station:DISL:CATA:1,2019-10-02T20:30:00Z,30.3085,-88.1395,2.216,21.41,11111222 
DISL,ioos:station:DISL:CATA:1,2019-10-02T21:30:00Z,30.3085,-88.1395,2.258,21.67,11111222 
DISL,ioos:station:DISL:CATA:1,2019-10-02T22:30:00Z,30.3085,-88.1395,2.311,21.75,11111222 
DISL,ioos:station:DISL:CATA:1,2019-10-02T23:30:00Z,30.3085,-88.1395,2.364,21.94,11111222 
DISL,ioos:station:DISL:CATA:1,2019-10-03T00:30:00Z,30.3085,-88.1395,2.419,22.12,11111222 
DISL,ioos:station:DISL:CATA:1,2019-10-03T01:30:00Z,30.3085,-88.1395,2.486,22.24,11111222 
DISL,ioos:station:DISL:CATA:1,2019-10-03T02:30:00Z,30.3085,-88.1395,2.542,22.25,11111222 
DISL,ioos:station:DISL:CATA:1,2019-10-03T03:30:00Z,30.3085,-88.1395,2.608,22.21,11111222 
DISL,ioos:station:DISL:CATA:1,2019-10-03T04:30:00Z,30.3085,-88.1395,2.647,22.19,11111222 
DISL,ioos:station:DISL:CATA:1,2019-10-03T05:30:00Z,30.3085,-88.1395,2.672,22.17,11111222 
DISL,ioos:station:DISL:CATA:1,2019-10-03T06:30:00Z,30.3085,-88.1395,2.669,22.07,11111222 
DISL,ioos:station:DISL:CATA:1,2019-10-03T07:30:00Z,30.3085,-88.1395,2.643,22.13,11111222 
DISL,ioos:station:DISL:CATA:1,2019-10-03T08:30:00Z,30.3085,-88.1395,2.613,22.0,11111222 
DISL,ioos:station:DISL:CATA:1,2019-10-03T09:30:00Z,30.3085,-88.1395,2.56,22.04,11111222 
DISL,ioos:station:DISL:CATA:1,2019-10-03T10:30:00Z,30.3085,-88.1395,2.502,21.62,11111222 
DISL,ioos:station:DISL:CATA:1,2019-10-03T11:30:00Z,30.3085,-88.1395,2.435,21.72,11111222 
DISL,ioos:station:DISL:CATA:1,2019-10-03T12:30:00Z,30.3085,-88.1395,2.354,21.9,11111222 
DISL,ioos:station:DISL:CATA:1,2019-10-03T13:30:00Z,30.3085,-88.1395,2.287,21.97,11111222 
DISL,ioos:station:DISL:CATA:1,2019-10-03T14:30:00Z,30.3085,-88.1395,2.236,21.88,11111222 
DISL,ioos:station:DISL:CATA:1,2019-10-03T15:30:00Z,30.3085,-88.1395,2.189,21.76,11111222 
DISL,ioos:station:DISL:CATA:1,2019-10-03T16:30:00Z,30.3085,-88.1395,2.162,21.6,11111222 
DISL,ioos:station:DISL:CATA:1,2019-10-03T17:30:00Z,30.3085,-88.1395,2.161,21.46,11111222 
DISL,ioos:station:DISL:CATA:1,2019-10-03T18:30:00Z,30.3085,-88.1395,2.175,21.39,11111222 
DISL,ioos:station:DISL:CATA:1,2019-10-03T19:30:00Z,30.3085,-88.1395,2.195,21.36,11111222 
DISL,ioos:station:DISL:CATA:1,2019-10-03T20:30:00Z,30.3085,-88.1395,2.209,21.33,11111222 
DISL,ioos:station:DISL:CATA:1,2019-10-03T21:30:00Z,30.3085,-88.1395,2.24,21.4,11111222 
DISL,ioos:station:DISL:CATA:1,2019-10-03T22:30:00Z,30.3085,-88.1395,2.282,21.44,11111222 
DISL,ioos:station:DISL:CATA:1,2019-10-03T23:30:00Z,30.3085,-88.1395,2.337,21.58,11111222 
DISL,ioos:station:DISL:CATA:1,2019-10-04T00:30:00Z,30.3085,-88.1395,2.405,21.73,11111222 
DISL,ioos:station:DISL:CATA:1,2019-10-04T01:30:00Z,30.3085,-88.1395,2.457,21.85,11111222 
DISL,ioos:station:DISL:CATA:1,2019-10-04T02:30:00Z,30.3085,-88.1395,2.52,21.92,11111222 
DISL,ioos:station:DISL:CATA:1,2019-10-04T03:30:00Z,30.3085,-88.1395,2.571,21.83,11111222 
DISL,ioos:station:DISL:CATA:1,2019-10-04T04:30:00Z,30.3085,-88.1395,2.624,21.73,11111222 
DISL,ioos:station:DISL:CATA:1,2019-10-04T05:30:00Z,30.3085,-88.1395,2.663,21.98,11111222 
DISL,ioos:station:DISL:CATA:1,2019-10-04T06:30:00Z,30.3085,-88.1395,2.682,22.18,11111222 
DISL,ioos:station:DISL:CATA:1,2019-10-04T07:30:00Z,30.3085,-88.1395,2.666,22.35,11111222 
DISL,ioos:station:DISL:CATA:1,2019-10-04T08:30:00Z,30.3085,-88.1395,2.648,22.41,11111222 
DISL,ioos:station:DISL:CATA:1,2019-10-04T09:30:00Z,30.3085,-88.1395,2.606,22.6,11111222 
DISL,ioos:station:DISL:CATA:1,2019-10-04T10:30:00Z,30.3085,-88.1395,2.551,21.86,11111222 
DISL,ioos:station:DISL:CATA:1,2019-10-04T11:30:00Z,30.3085,-88.1395,2.494,21.41,11111222 
DISL,ioos:station:DISL:CATA:1,2019-10-04T12:30:00Z,30.3085,-88.1395,2.427,21.6,11111222 
DISL,ioos:station:DISL:CATA:1,2019-10-04T13:30:00Z,30.3085,-88.1395,2.362,21.63,11111222 
DISL,ioos:station:DISL:CATA:1,2019-10-04T14:30:00Z,30.3085,-88.1395,2.301,21.55,11111222 
DISL,ioos:station:DISL:CATA:1,2019-10-04T15:30:00Z,30.3085,-88.1395,2.254,21.11,11111222 
DISL,ioos:station:DISL:CATA:1,2019-10-04T16:30:00Z,30.3085,-88.1395,2.2,20.66,11111222 
DISL,ioos:station:DISL:CATA:1,2019-10-04T18:00:00Z,30.3085,-88.1395,2.156,20.11,11111222 
DISL,ioos:station:DISL:CATA:1,2019-10-04T19:00:00Z,30.3085,-88.1395,2.145,19.87,11111222 
DISL,ioos:station:DISL:CATA:1,2019-10-04T20:00:00Z,30.3085,-88.1395,2.178,19.78,11111222 
DISL,ioos:station:DISL:CATA:1,2019-10-04T21:00:00Z,30.3085,-88.1395,2.19,19.77,11111222 
DISL,ioos:station:DISL:CATA:1,2019-10-04T21:30:00Z,30.3085,-88.1395,2.188,19.77,11111222 
DISL,ioos:station:DISL:CATA:1,2019-10-04T22:30:00Z,30.3085,-88.1395,2.228,19.82,11111222 
DISL,ioos:station:DISL:CATA:1,2019-10-04T23:30:00Z,30.3085,-88.1395,2.283,19.87,11111222 
DISL,ioos:station:DISL:CATA:1,2019-10-05T00:30:00Z,30.3085,-88.1395,2.35,20.36,11111222 
DISL,ioos:station:DISL:CATA:1,2019-10-05T01:30:00Z,30.3085,-88.1395,2.419,20.76,11111222 
DISL,ioos:station:DISL:CATA:1,2019-10-05T02:30:00Z,30.3085,-88.1395,2.482,21.23,11111222 
DISL,ioos:station:DISL:CATA:1,2019-10-05T03:30:00Z,30.3085,-88.1395,2.515,21.57,11111222 
DISL,ioos:station:DISL:CATA:1,2019-10-05T04:30:00Z,30.3085,-88.1395,2.566,21.73,11111222 
DISL,ioos:station:DISL:CATA:1,2019-10-05T05:30:00Z,30.3085,-88.1395,2.569,21.78,11111222 
DISL,ioos:station:DISL:CATA:1,2019-10-05T06:30:00Z,30.3085,-88.1395,2.617,21.83,11111222 
DISL,ioos:station:DISL:CATA:1,2019-10-05T07:30:00Z,30.3085,-88.1395,2.634,21.92,11111222 
DISL,ioos:station:DISL:CATA:1,2019-10-05T08:30:00Z,30.3085,-88.1395,2.629,22.13,11111222 
DISL,ioos:station:DISL:CATA:1,2019-10-05T09:30:00Z,30.3085,-88.1395,2.613,22.23,11111222 
DISL,ioos:station:DISL:CATA:1,2019-10-05T10:30:00Z,30.3085,-88.1395,2.591,22.25,11111222 
DISL,ioos:station:DISL:CATA:1,2019-10-05T11:30:00Z,30.3085,-88.1395,2.54,22.2,11111222 
DISL,ioos:station:DISL:CATA:1,2019-10-05T12:30:00Z,30.3085,-88.1395,2.489,20.93,11111222 
DISL,ioos:station:DISL:CATA:1,2019-10-05T13:30:00Z,30.3085,-88.1395,2.433,20.56,11111222 
DISL,ioos:station:DISL:CATA:1,2019-10-05T14:30:00Z,30.3085,-88.1395,2.383,20.48,11111222 
DISL,ioos:station:DISL:CATA:1,2019-10-05T15:30:00Z,30.3085,-88.1395,2.304,20.61,11111222 
DISL,ioos:station:DISL:CATA:1,2019-10-05T16:30:00Z,30.3085,-88.1395,2.245,19.86,11111222 
DISL,ioos:station:DISL:CATA:1,2019-10-05T17:30:00Z,30.3085,-88.1395,2.196,19.54,11111222 
DISL,ioos:station:DISL:CATA:1,2019-10-05T18:30:00Z,30.3085,-88.1395,2.172,19.19,11111222 
DISL,ioos:station:DISL:CATA:1,2019-10-05T19:30:00Z,30.3085,-88.1395,2.18,10.94,11111222 
DISL,ioos:station:DISL:CATA:1,2019-10-05T20:30:00Z,30.3085,-88.1395,2.195,19.11,11111222 
DISL,ioos:station:DISL:CATA:1,2019-10-05T21:30:00Z,30.3085,-88.1395,2.211,19.27,11111222 
DISL,ioos:station:DISL:CATA:1,2019-10-05T22:30:00Z,30.3085,-88.1395,2.231,19.35,11111222 
DISL,ioos:station:DISL:CATA:1,2019-10-05T23:30:00Z,30.3085,-88.1395,2.28,9.44,11111222 
DISL,ioos:station:DISL:CATA:1,2019-10-06T00:30:00Z,30.3085,-88.1395,2.333,19.49,11111222 
DISL,ioos:station:DISL:CATA:1,2019-10-06T01:30:00Z,30.3085,-88.1395,2.392,19.53,11111222 
DISL,ioos:station:DISL:CATA:1,2019-10-06T02:30:00Z,30.3085,-88.1395,2.446,19.39,11111222 
DISL,ioos:station:DISL:CATA:1,2019-10-06T03:30:00Z,30.3085,-88.1395,2.487,19.51,11111222 
DISL,ioos:station:DISL:CATA:1,2019-10-06T04:30:00Z,30.3085,-88.1395,2.548,19.83,11111222 
DISL,ioos:station:DISL:CATA:1,2019-10-06T05:30:00Z,30.3085,-88.1395,2.572,20.06,11111222 
DISL,ioos:station:DISL:CATA:1,2019-10-06T06:30:00Z,30.3085,-88.1395,2.606,20.25,11111222 
DISL,ioos:station:DISL:CATA:1,2019-10-06T07:30:00Z,30.3085,-88.1395,2.652,20.68,11111222 
DISL,ioos:station:DISL:CATA:1,2019-10-06T08:30:00Z,30.3085,-88.1395,2.683,20.73,11111222 
DISL,ioos:station:DISL:CATA:1,2019-10-06T09:30:00Z,30.3085,-88.1395,2.682,20.72,11111222 
DISL,ioos:station:DISL:CATA:1,2019-10-06T10:30:00Z,30.3085,-88.1395,2.672,20.65,11111222 
DISL,ioos:station:DISL:CATA:1,2019-10-06T11:30:00Z,30.3085,-88.1395,2.634,19.12,11111222 
DISL,ioos:station:DISL:CATA:1,2019-10-06T12:30:00Z,30.3085,-88.1395,2.585,19.33,11111222 
DISL,ioos:station:DISL:CATA:1,2019-10-06T13:30:00Z,30.3085,-88.1395,2.528,19.78,11111222 
DISL,ioos:station:DISL:CATA:1,2019-10-06T14:30:00Z,30.3085,-88.1395,2.465,19.62,11111222 
DISL,ioos:station:DISL:CATA:1,2019-10-06T15:30:00Z,30.3085,-88.1395,2.436,19.77,11111222 
DISL,ioos:station:DISL:CATA:1,2019-10-06T16:30:00Z,30.3085,-88.1395,2.402,19.75,11111222 
DISL,ioos:station:DISL:CATA:1,2019-10-06T17:30:00Z,30.3085,-88.1395,2.369,19.61,11111222 
DISL,ioos:station:DISL:CATA:1,2019-10-06T18:30:00Z,30.3085,-88.1395,2.318,19.54,11111222 
DISL,ioos:station:DISL:CATA:1,2019-10-06T19:30:00Z,30.3085,-88.1395,2.281,19.53,11111222 
DISL,ioos:station:DISL:CATA:1,2019-10-06T20:30:00Z,30.3085,-88.1395,2.289,19.42,11111222 
DISL,ioos:station:DISL:CATA:1,2019-10-06T21:30:00Z,30.3085,-88.1395,2.321,19.34,11111222 
DISL,ioos:station:DISL:CATA:1,2019-10-06T22:30:00Z,30.3085,-88.1395,2.334,20.44,11111222 
DISL,ioos:station:DISL:CATA:1,2019-10-06T23:30:00Z,30.3085,-88.1395,2.35,20.18,11111222 
DISL,ioos:station:DISL:CATA:1,2019-10-07T00:30:00Z,30.3085,-88.1395,2.383,19.97,11111222 
DISL,ioos:station:DISL:CATA:1,2019-10-07T01:30:00Z,30.3085,-88.1395,2.437,20.78,11111222 
DISL,ioos:station:DISL:CATA:1,2019-10-07T02:30:00Z,30.3085,-88.1395,2.493,21.0,11111222 
DISL,ioos:station:DISL:CATA:1,2019-10-07T03:30:00Z,30.3085,-88.1395,2.521,21.25,11111222 
DISL,ioos:station:DISL:CATA:1,2019-10-07T04:30:00Z,30.3085,-88.1395,2.567,20.79,11111222 
DISL,ioos:station:DISL:CATA:1,2019-10-07T05:30:00Z,30.3085,-88.1395,2.598,20.36,11111222 
DISL,ioos:station:DISL:CATA:1,2019-10-07T06:30:00Z,30.3085,-88.1395,2.642,20.21,11111222 
DISL,ioos:station:DISL:CATA:1,2019-10-07T07:30:00Z,30.3085,-88.1395,2.682,20.33,11111222 
DISL,ioos:station:DISL:CATA:1,2019-10-07T08:30:00Z,30.3085,-88.1395,2.709,20.56,11111222 
DISL,ioos:station:DISL:CATA:1,2019-10-07T09:30:00Z,30.3085,-88.1395,2.656,20.1,11111222 
DISL,ioos:station:DISL:CATA:1,2019-10-07T10:30:00Z,30.3085,-88.1395,2.687,20.2,11111222 
DISL,ioos:station:DISL:CATA:1,2019-10-07T11:30:00Z,30.3085,-88.1395,2.647,20.74,11111222 
DISL,ioos:station:DISL:CATA:1,2019-10-07T12:30:00Z,30.3085,-88.1395,2.641,19.17,11111222 
DISL,ioos:station:DISL:CATA:1,2019-10-07T18:00:00Z,30.3085,-88.1395,2.37,19.91,11111222 
DISL,ioos:station:DISL:CATA:1,2019-10-07T19:30:00Z,30.3085,-88.1395,2.332,19.74,11111222 
DISL,ioos:station:DISL:CATA:1,2019-10-07T20:30:00Z,30.3085,-88.1395,2.313,19.83,11111222 
DISL,ioos:station:DISL:CATA:1,2019-10-07T21:30:00Z,30.3085,-88.1395,2.313,19.86,11111222 
DISL,ioos:station:DISL:CATA:1,2019-10-07T22:30:00Z,30.3085,-88.1395,2.359,20.02,11111222 
DISL,ioos:station:DISL:CATA:1,2019-10-07T23:30:00Z,30.3085,-88.1395,2.259,20.13,11111222 
DISL,ioos:station:DISL:CATA:1,2019-10-08T00:30:00Z,30.3085,-88.1395,2.291,20.17,11111222 
DISL,ioos:station:DISL:CATA:1,2019-10-08T01:30:00Z,30.3085,-88.1395,2.318,20.15,11111222 
DISL,ioos:station:DISL:CATA:1,2019-10-08T02:30:00Z,30.3085,-88.1395,2.356,19.67,11111222 
DISL,ioos:station:DISL:CATA:1,2019-10-08T03:30:00Z,30.3085,-88.1395,2.437,19.8,11111222 
DISL,ioos:station:DISL:CATA:1,2019-10-08T04:30:00Z,30.3085,-88.1395,2.443,19.57,11111222 
DISL,ioos:station:DISL:CATA:1,2019-10-08T05:30:00Z,30.3085,-88.1395,2.454,19.51,11111222 
DISL,ioos:station:DISL:CATA:1,2019-10-08T06:30:00Z,30.3085,-88.1395,2.465,19.38,11111222 
DISL,ioos:station:DISL:CATA:1,2019-10-08T07:30:00Z,30.3085,-88.1395,2.485,19.64,11111222 
DISL,ioos:station:DISL:CATA:1,2019-10-08T08:30:00Z,30.3085,-88.1395,2.542,19.73,11111222 
DISL,ioos:station:DISL:CATA:1,2019-10-08T09:30:00Z,30.3085,-88.1395,2.568,19.62,11111222 
DISL,ioos:station:DISL:CATA:1,2019-10-08T10:30:00Z,30.3085,-88.1395,2.589,19.24,11111222 
DISL,ioos:station:DISL:CATA:1,2019-10-08T11:30:00Z,30.3085,-88.1395,2.607,19.36,11111222 
DISL,ioos:station:DISL:CATA:1,2019-10-08T12:30:00Z,30.3085,-88.1395,2.599,19.5,11111222 
DISL,ioos:station:DISL:CATA:1,2019-10-08T13:30:00Z,30.3085,-88.1395,2.585,19.45,11111222 
DISL,ioos:station:DISL:CATA:1,2019-10-08T14:30:00Z,30.3085,-88.1395,2.544,19.0,11111222 
DISL,ioos:station:DISL:CATA:1,2019-10-08T15:30:00Z,30.3085,-88.1395,2.5,19.08,11111222 
DISL,ioos:station:DISL:CATA:1,2019-10-08T16:30:00Z,30.3085,-88.1395,2.47,18.94,11111222 
DISL,ioos:station:DISL:CATA:1,2019-10-08T17:30:00Z,30.3085,-88.1395,2.427,18.98,11111222 
DISL,ioos:station:DISL:CATA:1,2019-10-08T19:00:00Z,30.3085,-88.1395,2.37,18.92,11111222 
DISL,ioos:station:DISL:CATA:1,2019-10-08T20:00:00Z,30.3085,-88.1395,2.332,18.51,11111222 
DISL,ioos:station:DISL:CATA:1,2019-10-08T21:00:00Z,30.3085,-88.1395,2.297,18.13,11111222 
DISL,ioos:station:DISL:CATA:1,2019-10-08T21:30:00Z,30.3085,-88.1395,2.291,18.09,11111222 
DISL,ioos:station:DISL:CATA:1,2019-10-08T22:30:00Z,30.3085,-88.1395,2.297,18.14,11111222 
DISL,ioos:station:DISL:CATA:1,2019-10-08T23:30:00Z,30.3085,-88.1395,2.323,18.24,11111222 
DISL,ioos:station:DISL:CATA:1,2019-10-09T00:30:00Z,30.3085,-88.1395,2.324,18.61,11111222 
DISL,ioos:station:DISL:CATA:1,2019-10-09T01:30:00Z,30.3085,-88.1395,2.339,18.49,11111222 
DISL,ioos:station:DISL:CATA:1,2019-10-09T03:00:00Z,30.3085,-88.1395,2.389,18.43,11111222 
DISL,ioos:station:DISL:CATA:1,2019-10-09T03:30:00Z,30.3085,-88.1395,2.416,18.56,11111222 
DISL,ioos:station:DISL:CATA:1,2019-10-09T04:30:00Z,30.3085,-88.1395,2.438,18.72,11111222 
DISL,ioos:station:DISL:CATA:1,2019-10-09T05:30:00Z,30.3085,-88.1395,2.455,18.71,11111222 
DISL,ioos:station:DISL:CATA:1,2019-10-09T06:30:00Z,30.3085,-88.1395,2.444,18.87,11111222 
DISL,ioos:station:DISL:CATA:1,2019-10-09T07:30:00Z,30.3085,-88.1395,2.439,18.52,11111222 
DISL,ioos:station:DISL:CATA:1,2019-10-09T08:30:00Z,30.3085,-88.1395,2.449,18.54,11111222 
DISL,ioos:station:DISL:CATA:1,2019-10-09T09:30:00Z,30.3085,-88.1395,2.481,19.13,11111222 
DISL,ioos:station:DISL:CATA:1,2019-10-09T10:30:00Z,30.3085,-88.1395,2.511,19.25,11111222 
DISL,ioos:station:DISL:CATA:1,2019-10-09T11:30:00Z,30.3085,-88.1395,2.523,19.01,11111222 
DISL,ioos:station:DISL:CATA:1,2019-10-09T12:30:00Z,30.3085,-88.1395,2.529,18.54,11111222 
DISL,ioos:station:DISL:CATA:1,2019-10-09T13:30:00Z,30.3085,-88.1395,2.54,18.62,11111222 
DISL,ioos:station:DISL:CATA:1,2019-10-09T14:30:00Z,30.3085,-88.1395,2.526,18.73,11111222 
DISL,ioos:station:DISL:CATA:1,2019-10-09T15:30:00Z,30.3085,-88.1395,2.524,18.78,11111222 
DISL,ioos:station:DISL:CATA:1,2019-10-09T16:30:00Z,30.3085,-88.1395,2.488,19.31,11111222 
DISL,ioos:station:DISL:CATA:1,2019-10-09T17:30:00Z,30.3085,-88.1395,2.439,18.93,11111222 
DISL,ioos:station:DISL:CATA:1,2019-10-09T18:30:00Z,30.3085,-88.1395,2.389,18.27,11111222 
DISL,ioos:station:DISL:CATA:1,2019-10-09T19:30:00Z,30.3085,-88.1395,2.332,18.39,11111222 
DISL,ioos:station:DISL:CATA:1,2019-10-09T20:30:00Z,30.3085,-88.1395,2.283,18.59,11111222 
DISL,ioos:station:DISL:CATA:1,2019-10-09T21:30:00Z,30.3085,-88.1395,2.261,18.7,11111222 
DISL,ioos:station:DISL:CATA:1,2019-10-09T22:30:00Z,30.3085,-88.1395,2.278,18.84,11111222 
DISL,ioos:station:DISL:CATA:1,2019-10-09T23:30:00Z,30.3085,-88.1395,2.284,19.03,11111222 
DISL,ioos:station:DISL:CATA:1,2019-10-10T02:30:00Z,30.3085,-88.1395,2.378,19.56,11111222 
DISL,ioos:station:DISL:CATA:1,2019-10-10T03:30:00Z,30.3085,-88.1395,2.405,19.51,11111222 
DISL,ioos:station:DISL:CATA:1,2019-10-10T04:30:00Z,30.3085,-88.1395,2.435,19.64,11111222 
DISL,ioos:station:DISL:CATA:1,2019-10-10T05:30:00Z,30.3085,-88.1395,2.457,19.66,11111222 
DISL,ioos:station:DISL:CATA:1,2019-10-10T06:30:00Z,30.3085,-88.1395,2.481,19.64,11111222 
DISL,ioos:station:DISL:CATA:1,2019-10-10T07:30:00Z,30.3085,-88.1395,2.485,19.65,11111222 
DISL,ioos:station:DISL:CATA:1,2019-10-10T08:30:00Z,30.3085,-88.1395,2.487,19.82,11111222 
DISL,ioos:station:DISL:CATA:1,2019-10-10T09:30:00Z,30.3085,-88.1395,2.498,19.88,11111222 
DISL,ioos:station:DISL:CATA:1,2019-10-10T10:30:00Z,30.3085,-88.1395,2.522,20.05,11111222 
DISL,ioos:station:DISL:CATA:1,2019-10-10T11:30:00Z,30.3085,-88.1395,2.563,20.44,11111222 
DISL,ioos:station:DISL:CATA:1,2019-10-10T12:30:00Z,30.3085,-88.1395,2.577,20.78,11111222 
DISL,ioos:station:DISL:CATA:1,2019-10-10T13:30:00Z,30.3085,-88.1395,2.57,20.54,11111222 
DISL,ioos:station:DISL:CATA:1,2019-10-10T14:30:00Z,30.3085,-88.1395,2.551,20.44,11111222 
DISL,ioos:station:DISL:CATA:1,2019-10-10T15:30:00Z,30.3085,-88.1395,2.518,20.25,11111222 
DISL,ioos:station:DISL:CATA:1,2019-10-10T16:30:00Z,30.3085,-88.1395,2.485,20.38,11111222 
DISL,ioos:station:DISL:CATA:1,2019-10-10T17:30:00Z,30.3085,-88.1395,2.474,20.48,11111222 
DISL,ioos:station:DISL:CATA:1,2019-10-10T18:30:00Z,30.3085,-88.1395,2.461,20.47,11111222 
DISL,ioos:station:DISL:CATA:1,2019-10-10T19:30:00Z,30.3085,-88.1395,2.412,20.43,11111222 
DISL,ioos:station:DISL:CATA:1,2019-10-10T20:30:00Z,30.3085,-88.1395,2.379,20.52,11111222 
DISL,ioos:station:DISL:CATA:1,2019-10-10T21:30:00Z,30.3085,-88.1395,2.358,20.36,11111222 
DISL,ioos:station:DISL:CATA:1,2019-10-10T22:30:00Z,30.3085,-88.1395,2.358,20.4,11111222 
DISL,ioos:station:DISL:CATA:1,2019-10-10T23:30:00Z,30.3085,-88.1395,2.381,20.47,11111222 
DISL,ioos:station:DISL:CATA:1,2019-10-11T00:30:00Z,30.3085,-88.1395,2.401,21.49,11111222 
DISL,ioos:station:DISL:CATA:1,2019-10-11T01:30:00Z,30.3085,-88.1395,2.449,22.01,11111222 
DISL,ioos:station:DISL:CATA:1,2019-10-11T02:30:00Z,30.3085,-88.1395,2.473,22.25,11111222 
DISL,ioos:station:DISL:CATA:1,2019-10-11T03:30:00Z,30.3085,-88.1395,2.503,22.49,11111222 
DISL,ioos:station:DISL:CATA:1,2019-10-11T04:30:00Z,30.3085,-88.1395,2.524,22.66,11111222 
DISL,ioos:station:DISL:CATA:1,2019-10-11T05:30:00Z,30.3085,-88.1395,2.527,22.96,11111222 
DISL,ioos:station:DISL:CATA:1,2019-10-11T06:30:00Z,30.3085,-88.1395,2.508,22.86,11111222 
DISL,ioos:station:DISL:CATA:1,2019-10-11T07:30:00Z,30.3085,-88.1395,2.489,22.98,11111222 
DISL,ioos:station:DISL:CATA:1,2019-10-11T08:30:00Z,30.3085,-88.1395,2.472,23.1,11111222 
DISL,ioos:station:DISL:CATA:1,2019-10-11T09:30:00Z,30.3085,-88.1395,2.481,24.85,11111222 
DISL,ioos:station:DISL:CATA:1,2019-10-11T10:30:00Z,30.3085,-88.1395,2.495,25.7,11111222 
DISL,ioos:station:DISL:CATA:1,2019-10-11T11:30:00Z,30.3085,-88.1395,2.533,25.81,11111222 
DISL,ioos:station:DISL:CATA:1,2019-10-11T12:30:00Z,30.3085,-88.1395,2.554,26.14,11111222 
DISL,ioos:station:DISL:CATA:1,2019-10-11T13:30:00Z,30.3085,-88.1395,2.563,26.24,11111222 
DISL,ioos:station:DISL:CATA:1,2019-10-11T14:30:00Z,30.3085,-88.1395,2.547,26.76,11111222 
DISL,ioos:station:DISL:CATA:1,2019-10-11T15:30:00Z,30.3085,-88.1395,2.533,26.07,11111222 
DISL,ioos:station:DISL:CATA:1,2019-10-11T16:30:00Z,30.3085,-88.1395,2.514,26.12,11111222 
DISL,ioos:station:DISL:CATA:1,2019-10-11T17:30:00Z,30.3085,-88.1395,2.502,26.41,11111222 
DISL,ioos:station:DISL:CATA:1,2019-10-11T18:30:00Z,30.3085,-88.1395,2.47,26.59,11111222 
DISL,ioos:station:DISL:CATA:1,2019-10-11T19:30:00Z,30.3085,-88.1395,2.419,26.74,11111222 
DISL,ioos:station:DISL:CATA:1,2019-10-11T20:30:00Z,30.3085,-88.1395,2.367,26.92,11111222 
DISL,ioos:station:DISL:CATA:1,2019-10-11T21:30:00Z,30.3085,-88.1395,2.353,26.55,11111222 
DISL,ioos:station:DISL:CATA:1,2019-10-11T22:30:00Z,30.3085,-88.1395,2.406,26.8,11111222 
DISL,ioos:station:DISL:CATA:1,2019-10-11T23:30:00Z,30.3085,-88.1395,2.412,26.91,11111222 
DISL,ioos:station:DISL:CATA:1,2019-10-12T00:30:00Z,30.3085,-88.1395,2.414,26.54,11111222 
DISL,ioos:station:DISL:CATA:1,2019-10-12T01:30:00Z,30.3085,-88.1395,2.485,26.43,11111222 
DISL,ioos:station:DISL:CATA:1,2019-10-12T02:30:00Z,30.3085,-88.1395,2.487,25.98,11111222 
DISL,ioos:station:DISL:CATA:1,2019-10-12T15:30:00Z,30.3085,-88.1395,2.311,26.04,11111222 
DISL,ioos:station:DISL:CATA:1,2019-10-12T16:30:00Z,30.3085,-88.1395,2.313,26.04,11111222 
DISL,ioos:station:DISL:CATA:1,2019-10-12T17:30:00Z,30.3085,-88.1395,2.349,26.13,11111222 
DISL,ioos:station:DISL:CATA:1,2019-10-12T18:30:00Z,30.3085,-88.1395,2.387,26.11,11111222 
DISL,ioos:station:DISL:CATA:1,2019-10-12T19:30:00Z,30.3085,-88.1395,2.379,26.04,11111222 
DISL,ioos:station:DISL:CATA:1,2019-10-12T20:30:00Z,30.3085,-88.1395,2.355,26.06,11111222 